Regional Weather Roundup
Issued by NWS

Home | Current Version | Previous Version | Graphics & Text | Print | Product List | Glossary On
Versions: 1 2 3 4 5 6 7 8 9 10 11 12 13 14 15 16 17 18 19 20 21 22 23 24 25 26 27 28 29 30 31 32 33 34 35 36 37 38 39 40 41 42 43 44 45 46 47 48 49 50
000
ASUS45 KBOI 301210
RWRID
WEATHER ROUNDUP FOR IDAHO
NATIONAL WEATHER SERVICE BOISE ID
500 AM MST FRI JAN 30 2015

NOTE: "FAIR" INDICATES FEW OR NO CLOUDS BELOW 12000 FEET
WITH NO SIGNIFICANT WEATHER AND/OR OBSTRUCTIONS TO VISIBILITY

IDZ012-014-301300-
SOUTHWEST IDAHO


CITY           SKY/WX    TMP DP  RH WIND       PRES   REMARKS
BOISE          PTCLDY    30  28  92 CALM      30.29S
CALDWELL       CLOUDY    34  27  75 NW7       30.32S WCI  28
MOUNTAIN HOME  MOCLDY    33  30  89 N5        30.26F WCI  29
$$

IDZ016-017-301300-
SOUTHCENTRAL IDAHO


CITY           SKY/WX    TMP DP  RH WIND       PRES   REMARKS
BURLEY         CLOUDY    32  30  92 E3        30.23F
JEROME         CLOUDY    32  29  88 E5        30.25F WCI  27
TWIN FALLS     CLOUDY    35  31  85 SW5       30.24F WCI  31
$$

IDZ019>023-301300-
SOUTHEAST IDAHO


CITY           SKY/WX    TMP DP  RH WIND       PRES   REMARKS
IDAHO FALLS    PTCLDY    28  24  85 N6        30.25S WCI  22
POCATELLO      CLEAR     29  29 100 CALM      30.24F
REXBURG        MOCLDY    23  20  88 NE7       30.25S WCI  15
$$

IDZ006-010-011-018-031-032-301300-
CENTRAL IDAHO MOUNTAINS


CITY           SKY/WX    TMP DP  RH WIND       PRES   REMARKS
MCCALL         HAZE      22  16  78 CALM      30.25F VSB 1/4
HAILEY         MOCLDY    27  19  74 NW10      30.25F WCI  17
STANLEY          N/A     10   5  80 CALM      30.30S
SALMON         CLOUDY    25  21  86 CALM      30.37S
CHALLIS        CLOUDY    27  21  78 NW7       30.32F WCI  19
$$

IDZ002-004-006-007-026-301300-
NORTHERN IDAHO


CITY           SKY/WX    TMP DP  RH WIND       PRES   REMARKS
LEWISTON       CLOUDY    37  36  96 CALM      30.37F FOG
LOWELL           N/A     30  28  92 CALM      30.41F
COEUR D`ALENE  CLOUDY    30  28  93 NE10      30.34F WCI  21
MULLAN PASS    CLEAR     29  20  69 CALM      30.24F
$$


USA.gov is the U.S. government's official web portal to all federal, state and local government web resources and services.